Weather History for Lander, WY

Change the Weather History Date:

Monday, January 7, 2013

  Actual Average Record
Temperature  
Mean Temperature 12 °F 21 °F  
Max Temperature 24 °F 33 °F 55 °F (1948)
Min Temperature 5 °F 10 °F -26 °F (1913)
Degree Days  
Heating Degree Days 53 44  
Month to date heating degree days 308  
Since 1 July heating degree days 3554  
Cooling Degree Days 0 0  
Month to date cooling degree days 0  
Year to date cooling degree days 0  
Moisture  
Dew Point 5 °F    
Average Humidity 74    
Maximum Humidity 87    
Minimum Humidity 57    
Precipitation  
Precipitation 0.00 in 0.01 in 0.29 in (1992)
Month to date precipitation 0.10  
Year to date precipitation 0.10  
Snow  
Snow 0.00 in 0.30 in - ()
Month to date snowfall 1.9  
Since 1 July snowfall 37.6  
Snow Depth -    
Sea Level Pressure  
Sea Level Pressure 30.09 in    
Wind  
Wind Speed 4 mph (WSW)    
Max Wind Speed 16 mph    
Max Gust Speed -    
Visibility 8 miles    
Events      
T = Trace of Precipitation, MM = Missing Value Source: NWS Daily Summary

Daily Weather History Graph

Daily Weather History Graph

Search for Another Location

Airport:

Trip Planner

Search our weather history database for the weather conditions in past years. The results will help you decide how hot, cold, wet, or windy it might be!

Date:

Astronomy

Jan. 07, 2013 Rise Set
Actual Time 7:45 AM MST 4:57 PM MST
Civil Twilight 7:13 AM MST 5:29 PM MST
Nautical Twilight 6:38 AM MST 6:04 PM MST
Astronomical Twilight 6:04 AM MST 6:39 PM MST
Moon 3:11 AM MST (1/7) 1:12 PM MST (1/7)
Length of Visible Light 10h 15m
Length of Day
9h 12m
Waning Crescent, 22% of the Moon is Illuminated
Jan 7
Waning Crescent
Jan 11
New
Jan 18
First Quarter
Jan 26
Full
Feb 3
Last Quarter

Hourly Weather History & Observations

Time (MST) Temp. Windchill Dew Point Humidity Pressure Visibility Wind Dir Wind Speed Gust Speed Precip Events Conditions
12:53 AM 6.1 °F -2.8 °F 1.0 °F 80% 30.16 in 9.0 mi SSE 4.6 mph - N/A   Clear
1:53 AM 14.0 °F 2.0 °F 6.1 °F 71% 30.12 in 10.0 mi SW 9.2 mph - N/A   Clear
2:53 AM 8.1 °F -0.5 °F 1.9 °F 76% 30.15 in 10.0 mi SSE 4.6 mph - N/A   Clear
3:53 AM 6.1 °F - 1.0 °F 80% 30.16 in 7.0 mi Calm Calm - N/A   Clear
4:53 AM 6.1 °F - 1.0 °F 80% 30.15 in 9.0 mi Calm Calm - N/A   Clear
5:53 AM 7.0 °F -3.3 °F 1.9 °F 80% 30.17 in 10.0 mi NNW 5.8 mph - N/A   Clear
6:53 AM 5.0 °F - -0.0 °F 80% 30.20 in 10.0 mi Calm Calm - N/A   Clear
7:53 AM 5.0 °F -2.1 °F 1.0 °F 84% 30.20 in 8.0 mi South 3.5 mph - N/A   Clear
8:53 AM 5.0 °F -4.1 °F 1.9 °F 87% 30.22 in 6.0 mi South 4.6 mph - N/A   Clear
9:53 AM 6.1 °F - 1.9 °F 83% 30.24 in 5.0 mi Calm Calm - N/A   Clear
10:53 AM 12.9 °F 5.2 °F 6.1 °F 74% 30.16 in 6.0 mi NNW 4.6 mph - N/A   Haze
11:53 AM 15.1 °F 7.7 °F 6.1 °F 68% 30.13 in 8.0 mi NNW 4.6 mph - N/A   Clear
12:53 PM 19.0 °F 13.9 °F 9.0 °F 65% 30.10 in 8.0 mi West 3.5 mph - N/A   Clear
1:53 PM 17.1 °F 10.0 °F 9.0 °F 71% 30.04 in 9.0 mi East 4.6 mph - N/A   Clear
2:53 PM 19.0 °F 10.0 °F 9.0 °F 65% 30.02 in 8.0 mi North 6.9 mph - N/A   Clear
3:53 PM 18.0 °F 8.7 °F 9.0 °F 68% 30.03 in 8.0 mi NW 6.9 mph - N/A   Clear
4:53 PM 15.1 °F - 8.1 °F 74% 30.01 in 7.0 mi Calm Calm - N/A   Clear
5:53 PM 12.9 °F 6.9 °F 6.1 °F 74% 30.00 in 9.0 mi SSW 3.5 mph - N/A   Clear
6:53 PM 12.0 °F 4.1 °F 6.1 °F 77% 30.03 in 7.0 mi WNW 4.6 mph - N/A   Clear
7:53 PM 14.0 °F - 7.0 °F 74% 29.99 in 8.0 mi Calm Calm - N/A   Clear
8:53 PM 15.1 °F - 7.0 °F 70% 30.00 in 9.0 mi Calm Calm - N/A   Clear
9:53 PM 12.9 °F 6.9 °F 6.1 °F 74% 30.01 in 9.0 mi SSE 3.5 mph - N/A   Clear
10:53 PM 17.1 °F - 8.1 °F 68% 29.97 in 10.0 mi Calm Calm - N/A   Clear
11:53 PM 24.1 °F 11.0 °F 10.9 °F 57% 29.94 in 10.0 mi West 16.1 mph - N/A   Clear